| time (UTC) | temp F | wind direction | speed MPH | gust MPH | rain 1hr in | rain 24hr in | rain mn in | humidity % | barometer mb |
| 20260903201635 | 74 | 188 | 5.0 | 13.0 | 0.00 | 0.00 | 0.00 | 17 | 1013.5 |
| 20260903200625 | 75 | 161 | 4.0 | 12.0 | 0.00 | 0.00 | 0.00 | 18 | 1013.6 |
| 20260903195613 | 75 | 101 | 5.0 | 16.0 | 0.00 | 0.00 | 0.00 | 18 | 1013.6 |
| 20260903194624 | 74 | 105 | 5.0 | 11.0 | 0.00 | 0.00 | 0.00 | 19 | 1013.7 |
| 20260903193615 | 74 | 94 | 6.0 | 17.0 | 0.00 | 0.00 | 0.00 | 20 | 1013.8 |
| 20260903192626 | 74 | 184 | 5.0 | 10.0 | 0.00 | 0.00 | 0.00 | 18 | 1014.1 |
| 20260903191621 | 75 | 198 | 5.0 | 14.0 | 0.00 | 0.00 | 0.00 | 20 | 1014.1 |
| 20260903190612 | 73 | 197 | 3.0 | 9.0 | 0.00 | 0.00 | 0.00 | 22 | 1014.3 |
| 20260903185616 | 73 | 277 | 4.0 | 8.0 | 0.00 | 0.00 | 0.00 | 24 | 1014.3 |
| 20260903184647 | 72 | 290 | 2.0 | 6.0 | 0.00 | 0.00 | 0.00 | 25 | 1014.5 |
| 20260903183621 | 72 | 289 | 4.0 | 9.0 | 0.00 | 0.00 | 0.00 | 32 | 1014.6 |
| 20260903182613 | 71 | 320 | 4.0 | 6.0 | 0.00 | 0.00 | 0.00 | 30 | 1014.7 |
| 20260903181623 | 70 | 302 | 4.0 | 8.0 | 0.00 | 0.00 | 0.00 | 39 | 1014.7 |
| 20260903180621 | 69 | 331 | 4.0 | 8.0 | 0.00 | 0.00 | 0.00 | 40 | 1015.0 |
| 20260903175627 | 68 | 313 | 2.0 | 7.0 | 0.00 | 0.00 | 0.00 | 44 | 1015.1 |
| 20260903174638 | 67 | 329 | 6.0 | 9.0 | 0.00 | 0.00 | 0.00 | 43 | 1015.2 |
| 20260903173628 | 67 | 306 | 5.0 | 8.0 | 0.00 | 0.00 | 0.00 | 42 | 1015.3 |
| 20260903172617 | 66 | 290 | 5.0 | 9.0 | 0.00 | 0.00 | 0.00 | 41 | 1015.4 |
| 20260903171630 | 66 | 337 | 4.0 | 9.0 | 0.00 | 0.00 | 0.00 | 39 | 1015.4 |
| 20260903170620 | 65 | 319 | 5.0 | 9.0 | 0.00 | 0.00 | 0.00 | 38 | 1015.3 |
| 20260903165621 | 64 | 290 | 5.0 | 10.0 | 0.00 | 0.00 | 0.00 | 42 | 1015.4 |
| 20260903164630 | 64 | 323 | 6.0 | 8.0 | 0.00 | 0.00 | 0.00 | 42 | 1015.5 |
| 20260903163623 | 64 | 302 | 3.0 | 6.0 | 0.00 | 0.00 | 0.00 | 43 | 1015.7 |
| 20260903162614 | 63 | 287 | 3.0 | 8.0 | 0.00 | 0.00 | 0.00 | 45 | 1015.6 |
| 20260903161623 | 63 | 300 | 3.0 | 7.0 | 0.00 | 0.00 | 0.00 | 48 | 1015.7 |
| 20260903160613 | 63 | 298 | 2.0 | 4.0 | 0.00 | 0.00 | 0.00 | 48 | 1015.5 |
| 20260903155620 | 63 | 298 | 3.0 | 5.0 | 0.00 | 0.00 | 0.00 | 49 | 1015.7 |
| 20260903154629 | 62 | 313 | 1.0 | 4.0 | 0.00 | 0.00 | 0.00 | 50 | 1015.7 |
| 20260903153617 | 61 | 311 | 3.0 | 5.0 | 0.00 | 0.00 | 0.00 | 52 | 1015.7 |
| 20260903152647 | 60 | 271 | 0.0 | 0.0 | 0.00 | 0.00 | 0.00 | 51 | 1015.8 |
| 20260903151619 | 59 | 214 | 0.0 | 3.0 | 0.00 | 0.00 | 0.00 | 48 | 1015.8 |
| 20260903150627 | 58 | 209 | 1.0 | 4.0 | 0.00 | 0.00 | 0.00 | 46 | 1016.0 |
| 20260903145629 | 57 | 197 | 3.0 | 6.0 | 0.00 | 0.00 | 0.00 | 46 | 1015.9 |
| 20260903144618 | 56 | 186 | 3.0 | 6.0 | 0.00 | 0.00 | 0.00 | 48 | 1015.8 |
| 20260903143651 | 53 | 127 | 0.0 | 3.0 | 0.00 | 0.00 | 0.00 | 56 | 1015.8 |
| 20260903142619 | 52 | 127 | 2.0 | 4.0 | 0.00 | 0.00 | 0.00 | 59 | 1015.8 |
| 20260903141628 | 51 | 120 | 3.0 | 7.0 | 0.00 | 0.00 | 0.00 | 60 | 1015.8 |
| 20260903140617 | 51 | 127 | 4.0 | 8.0 | 0.00 | 0.00 | 0.00 | 60 | 1015.7 |
| 20260903135620 | 50 | 132 | 4.0 | 9.0 | 0.00 | 0.00 | 0.00 | 62 | 1015.6 |
| 20260903134629 | 49 | 123 | 6.0 | 9.0 | 0.00 | 0.00 | 0.00 | 62 | 1015.5 |
| 20260903133619 | 49 | 115 | 4.0 | 8.0 | 0.00 | 0.00 | 0.00 | 62 | 1015.5 |
| 20260903132649 | 49 | 142 | 5.0 | 10.0 | 0.00 | 0.00 | 0.00 | 61 | 1015.3 |
| 20260903131641 | 49 | 115 | 7.0 | 10.0 | 0.00 | 0.00 | 0.00 | 62 | 1015.4 |
| 20260903130629 | 49 | 115 | 8.0 | 10.0 | 0.00 | 0.00 | 0.00 | 61 | 1015.3 |
| 20260903125651 | 49 | 134 | 6.0 | 9.0 | 0.00 | 0.00 | 0.00 | 60 | 1015.1 |
| 20260903124641 | 50 | 118 | 5.0 | 9.0 | 0.00 | 0.00 | 0.00 | 59 | 1014.9 |
| 20260903123628 | 50 | 115 | 6.0 | 9.0 | 0.00 | 0.00 | 0.00 | 58 | 1014.9 |
| 20260903122619 | 50 | 113 | 8.0 | 10.0 | 0.00 | 0.00 | 0.00 | 57 | 1014.9 |
| 20260903121628 | 50 | 125 | 7.0 | 9.0 | 0.00 | 0.00 | 0.00 | 56 | 1014.7 |
| 20260903120619 | 51 | 123 | 3.0 | 9.0 | 0.00 | 0.00 | 0.00 | 55 | 1014.8 |
| 20260903115622 | 51 | 125 | 5.0 | 9.0 | 0.00 | 0.00 | 0.00 | 54 | 1014.7 |
| 20260903114616 | 51 | 94 | 5.0 | 10.0 | 0.00 | 0.00 | 0.00 | 53 | 1014.5 |
| 20260903113626 | 51 | 142 | 7.0 | 9.0 | 0.00 | 0.00 | 0.00 | 53 | 1014.3 |
| 20260903112637 | 51 | 117 | 8.0 | 10.0 | 0.00 | 0.00 | 0.00 | 53 | 1014.2 |
| 20260903111626 | 51 | 148 | 4.0 | 9.0 | 0.00 | 0.00 | 0.00 | 52 | 1014.2 |
| 20260903110638 | 51 | 147 | 6.0 | 10.0 | 0.00 | 0.00 | 0.00 | 52 | 1014.1 |
| 20260903105614 | 52 | 126 | 7.0 | 10.0 | 0.00 | 0.00 | 0.00 | 52 | 1014.0 |
| 20260903104627 | 52 | 106 | 7.0 | 10.0 | 0.00 | 0.00 | 0.00 | 52 | 1013.9 |
| 20260903103618 | 53 | 123 | 8.0 | 10.0 | 0.00 | 0.00 | 0.00 | 52 | 1013.8 |
| 20260903102627 | 53 | 121 | 8.0 | 11.0 | 0.00 | 0.00 | 0.00 | 51 | 1013.9 |
| 20260903101620 | 53 | 127 | 8.0 | 10.0 | 0.00 | 0.00 | 0.00 | 51 | 1013.7 |
| 20260903100630 | 54 | 128 | 7.0 | 10.0 | 0.00 | 0.00 | 0.00 | 51 | 1013.7 |
| 20260903095634 | 55 | 127 | 6.0 | 9.0 | 0.00 | 0.00 | 0.00 | 51 | 1013.7 |
| 20260903094624 | 55 | 121 | 6.0 | 9.0 | 0.00 | 0.00 | 0.00 | 51 | 1013.7 |
| 20260903093618 | 55 | 115 | 5.0 | 7.0 | 0.00 | 0.00 | 0.00 | 51 | 1013.6 |
| 20260903092628 | 56 | 119 | 4.0 | 7.0 | 0.00 | 0.00 | 0.00 | 50 | 1013.7 |
| 20260903091618 | 56 | 130 | 4.0 | 5.0 | 0.00 | 0.00 | 0.00 | 49 | 1013.7 |
| 20260903090627 | 57 | 144 | 4.0 | 5.0 | 0.00 | 0.00 | 0.00 | 49 | 1013.7 |
| 20260903085614 | 57 | 144 | 3.0 | 5.0 | 0.00 | 0.00 | 0.00 | 48 | 1013.8 |
| 20260903084625 | 57 | 157 | 4.0 | 6.0 | 0.00 | 0.00 | 0.00 | 47 | 1013.7 |
| 20260903083614 | 57 | 190 | 3.0 | 5.0 | 0.00 | 0.00 | 0.00 | 47 | 1013.9 |
| 20260903082644 | 57 | 202 | 4.0 | 4.0 | 0.00 | 0.00 | 0.00 | 47 | 1014.1 |
| 20260903081638 | 58 | 205 | 3.0 | 4.0 | 0.00 | 0.00 | 0.00 | 47 | 1014.1 |
| 20260903080646 | 58 | 205 | 0.0 | 0.0 | 0.00 | 0.00 | 0.00 | 47 | 1014.1 |
| 20260903075649 | 58 | 205 | 0.0 | 0.0 | 0.00 | 0.00 | 0.00 | 47 | 1013.9 |
| 20260903074619 | 58 | 205 | 0.0 | 0.0 | 0.00 | 0.00 | 0.00 | 46 | 1014.0 |
| 20260903073649 | 58 | 205 | 0.0 | 0.0 | 0.00 | 0.00 | 0.00 | 46 | 1014.0 |
| 20260903072623 | 58 | 205 | 0.0 | 0.0 | 0.00 | 0.00 | 0.00 | 48 | 1014.0 |
| 20260903071612 | 58 | 205 | 0.0 | 3.0 | 0.00 | 0.00 | 0.00 | 45 | 1013.9 |
| 20260903070622 | 58 | 323 | 2.0 | 4.0 | 0.00 | 0.00 | 0.00 | 44 | 1013.9 |
| 20260903065623 | 57 | 251 | 0.0 | 0.0 | 0.00 | 0.00 | 0.00 | 42 | 1014.0 |
| 20260903064618 | 57 | 294 | 0.0 | 2.0 | 0.00 | 0.00 | 0.00 | 43 | 1014.1 |
| 20260903063628 | 58 | 294 | 2.0 | 3.0 | 0.00 | 0.00 | 0.00 | 45 | 1013.9 |
| 20260903062617 | 58 | 12 | 0.0 | 0.0 | 0.00 | 0.00 | 0.00 | 46 | 1013.8 |
| 20260903061612 | 58 | 12 | 1.0 | 4.0 | 0.00 | 0.00 | 0.00 | 45 | 1013.8 |
| 20260903060631 | 57 | 344 | 0.0 | 0.0 | 0.00 | 0.00 | 0.00 | 47 | 1013.7 |
| 20260903055631 | 57 | 344 | 0.0 | 0.0 | 0.00 | 0.00 | 0.00 | 47 | 1013.7 |
| 20260903054622 | 58 | 344 | 0.0 | 0.0 | 0.00 | 0.00 | 0.00 | 47 | 1013.6 |
| 20260903053613 | 59 | 344 | 0.0 | 3.0 | 0.00 | 0.00 | 0.00 | 47 | 1013.6 |
| 20260903052628 | 61 | 355 | 1.0 | 3.0 | 0.00 | 0.00 | 0.00 | 41 | 1013.5 |
| 20260903051617 | 61 | 63 | 0.0 | 10.0 | 0.00 | 0.00 | 0.00 | 34 | 1013.5 |
| 20260903050628 | 62 | 91 | 6.0 | 8.0 | 0.00 | 0.00 | 0.00 | 33 | 1013.4 |
| 20260903045613 | 61 | 115 | 6.0 | 8.0 | 0.00 | 0.00 | 0.00 | 33 | 1013.4 |
| 20260903044644 | 60 | 124 | 5.0 | 9.0 | 0.00 | 0.00 | 0.00 | 35 | 1013.4 |
| 20260903043614 | 60 | 126 | 7.0 | 9.0 | 0.00 | 0.00 | 0.00 | 37 | 1013.5 |
| 20260903042623 | 60 | 117 | 5.0 | 8.0 | 0.00 | 0.00 | 0.00 | 37 | 1013.5 |
| 20260903041618 | 60 | 119 | 5.0 | 8.0 | 0.00 | 0.00 | 0.00 | 37 | 1013.6 |
| 20260903040630 | 60 | 119 | 6.0 | 8.0 | 0.00 | 0.00 | 0.00 | 36 | 1013.4 |
| 20260903035631 | 60 | 121 | 7.0 | 9.0 | 0.00 | 0.00 | 0.00 | 36 | 1013.5 |
| 20260903034642 | 60 | 120 | 5.0 | 8.0 | 0.00 | 0.00 | 0.00 | 36 | 1013.4 |
| 20260903033613 | 61 | 117 | 6.0 | 10.0 | 0.00 | 0.00 | 0.00 | 35 | 1013.2 |
| 20260903032628 | 61 | 115 | 6.0 | 10.0 | 0.00 | 0.00 | 0.00 | 34 | 1013.3 |
| 20260903031619 | 61 | 115 | 7.0 | 9.0 | 0.00 | 0.00 | 0.00 | 34 | 1013.1 |
| 20260903030631 | 62 | 121 | 7.0 | 9.0 | 0.00 | 0.00 | 0.00 | 34 | 1013.0 |
| 20260903025617 | 63 | 125 | 6.0 | 8.0 | 0.00 | 0.00 | 0.00 | 34 | 1013.0 |
| 20260903024628 | 64 | 131 | 5.0 | 7.0 | 0.00 | 0.00 | 0.00 | 33 | 1012.8 |
| 20260903023620 | 64 | 116 | 5.0 | 7.0 | 0.00 | 0.00 | 0.00 | 34 | 1012.8 |
| 20260903022631 | 65 | 129 | 4.0 | 7.0 | 0.00 | 0.00 | 0.00 | 34 | 1012.8 |
| 20260903021626 | 65 | 118 | 4.0 | 7.0 | 0.00 | 0.00 | 0.00 | 34 | 1012.8 |
| 20260903020618 | 66 | 126 | 4.0 | 7.0 | 0.00 | 0.00 | 0.00 | 33 | 1012.8 |
| 20260903015621 | 68 | 142 | 1.0 | 2.0 | 0.00 | 0.00 | 0.00 | 31 | 1013.0 |
| 20260903014631 | 68 | 142 | 0.0 | 0.0 | 0.00 | 0.00 | 0.00 | 30 | 1012.9 |
| 20260903013626 | 69 | 142 | 0.0 | 3.0 | 0.00 | 0.00 | 0.00 | 30 | 1013.0 |
| 20260903012616 | 69 | 142 | 2.0 | 3.0 | 0.00 | 0.00 | 0.00 | 30 | 1013.0 |
| 20260903011626 | 69 | 141 | 2.0 | 4.0 | 0.00 | 0.00 | 0.00 | 29 | 1013.1 |
| 20260903010637 | 70 | 310 | 0.0 | 2.0 | 0.00 | 0.00 | 0.00 | 30 | 1013.2 |
| 20260903005622 | 70 | 310 | 0.0 | 6.0 | 0.00 | 0.00 | 0.00 | 31 | 1013.2 |
| 20260903004632 | 70 | 223 | 1.0 | 3.0 | 0.00 | 0.00 | 0.00 | 31 | 1013.3 |
| 20260903003620 | 71 | 219 | 0.0 | 3.0 | 0.00 | 0.00 | 0.00 | 32 | 1013.2 |
| 20260903002651 | 71 | 279 | 0.0 | 3.0 | 0.00 | 0.00 | 0.00 | 32 | 1013.2 |
| 20260903001624 | 72 | 286 | 2.0 | 7.0 | 0.00 | 0.00 | 0.00 | 30 | 1013.2 |
| 20260903000617 | 73 | 275 | 4.0 | 8.0 | 0.00 | 0.00 | 0.00 | 29 | 1013.2 |
| 20260902235620 | 74 | 101 | 3.0 | 7.0 | 0.00 | 0.00 | 0.00 | 27 | 1013.2 |
| 20260902234631 | 74 | 157 | 5.0 | 11.0 | 0.00 | 0.00 | 0.00 | 26 | 1013.2 |
| 20260902233626 | 74 | 171 | 3.0 | 12.0 | 0.00 | 0.00 | 0.00 | 26 | 1013.1 |
| 20260902232617 | 74 | 173 | 6.0 | 11.0 | 0.00 | 0.00 | 0.00 | 26 | 1013.2 |
| 20260902231649 | 75 | 165 | 7.0 | 12.0 | 0.00 | 0.00 | 0.00 | 27 | 1013.2 |
| 20260902230620 | 75 | 213 | 3.0 | 10.0 | 0.00 | 0.00 | 0.00 | 27 | 1013.0 |
| 20260902225627 | 75 | 71 | 6.0 | 14.0 | 0.00 | 0.00 | 0.00 | 27 | 1013.0 |
| 20260902224618 | 74 | 186 | 3.0 | 10.0 | 0.00 | 0.00 | 0.00 | 28 | 1013.0 |
| 20260902223631 | 75 | 98 | 6.0 | 16.0 | 0.00 | 0.00 | 0.00 | 28 | 1013.0 |
| 20260902222622 | 75 | 127 | 8.0 | 16.0 | 0.00 | 0.00 | 0.00 | 26 | 1013.2 |
| 20260902221617 | 75 | 105 | 5.0 | 14.0 | 0.00 | 0.00 | 0.00 | 26 | 1013.2 |
| 20260902220628 | 75 | 45 | 6.0 | 16.0 | 0.00 | 0.00 | 0.00 | 27 | 1013.2 |
| 20260902215630 | 75 | 320 | 8.0 | 17.0 | 0.00 | 0.00 | 0.00 | 27 | 1013.2 |
| 20260902214621 | 75 | 147 | 7.0 | 18.0 | 0.00 | 0.00 | 0.00 | 28 | 1013.1 |
| 20260902213616 | 75 | 270 | 7.0 | 14.0 | 0.00 | 0.00 | 0.00 | 29 | 1013.1 |
| 20260902212629 | 76 | 128 | 5.0 | 11.0 | 0.00 | 0.00 | 0.00 | 28 | 1013.2 |
| 20260902211620 | 75 | 302 | 6.0 | 14.0 | 0.00 | 0.00 | 0.00 | 28 | 1013.2 |
| 20260902210615 | 75 | 155 | 6.0 | 12.0 | 0.00 | 0.00 | 0.00 | 29 | 1013.2 |
| 20260902205618 | 75 | 167 | 7.0 | 12.0 | 0.00 | 0.00 | 0.00 | 30 | 1013.4 |
| 20260902204629 | 75 | 149 | 7.0 | 16.0 | 0.00 | 0.00 | 0.00 | 30 | 1013.4 |
| 20260902203619 | 75 | 153 | 8.0 | 18.0 | 0.00 | 0.00 | 0.00 | 28 | 1013.4 |
| 20260902202613 | 74 | 167 | 4.0 | 9.0 | 0.00 | 0.00 | 0.00 | 31 | 1013.3 |